Location: Azat
(46.0765°N, 1.7600°E)
Time: 04:05:38
(UTC+00:00)

Cosmos 2322 Rocket - Pass Details

Date: 09 April 2020
Orbit: 834 x 849 km, 71.0° (Epoch: 02 June)

Event Time Altitude Azimuth Distance (km) Brightness Sun altitude
Rises 21:34:35 0° 341° (NNW) 3,405 6.4 -27.6°
Reaches altitude 10° 21:37:47 10° 358° (N) 2,464 5.2 -27.9°
Maximum altitude 21:41:46 19° 44° (NE) 1,888 4.1 -28.3°
Enters shadow 21:42:26 19° 53° (NE) 1,906 4.0 -28.4°
